When you browse on this site, cookies collect data to enhance your experience and personalize the content and advertising you see.
Visit our Privacy Policy to learn more. By continuing to use the site, you agree to this use of cookies and data.
  • In Österreich
  • Länderverzeichnis
  • Für 7 Tage
  • Wassertemperatur
  • Satellitenkarten
  • Wetterkarte
  • News
  • Widgets
  • user-avatar
    Anmelden

    Stündliche Wetter Luksor

    Heute, 19 Januar, Samstag

    Zeit Temperatur Niederschläge Wind Luftdruck Luftfeuchtigkeit
    00:00 +12°C° 0 mm 1 m/S 756 mmHg 46%
    01:00 +11°C° 0 mm 1 m/S 756 mmHg 49%
    02:00 +11°C° 0 mm 1 m/S 755 mmHg 51%
    03:00 +10°C° 0 mm 1 m/S 756 mmHg 54%
    04:00 +10°C° 0 mm 1 m/S 756 mmHg 56%
    05:00 +10°C° 0 mm 1 m/S 756 mmHg 59%
    06:00 +11°C° 0 mm 1 m/S 756 mmHg 55%
    07:00 +12°C° 0 mm 1 m/S 756 mmHg 51%
    08:00 +14°C° 0 mm 1 m/S 756 mmHg 43%
    09:00 +15°C° 0 mm 1 m/S 756 mmHg 38%
    10:00 +18°C° 0 mm 1 m/S 756 mmHg 33%
    11:00 +20°C° 0 mm 1 m/S 756 mmHg 28%
    12:00 +20°C° 0 mm 2 m/S 755 mmHg 24%
    13:00 +21°C° 0 mm 2 m/S 755 mmHg 21%
    14:00 +23°C° 0 mm 2 m/S 755 mmHg 20%
    15:00 +21°C° 0 mm 2 m/S 755 mmHg 21%
    16:00 +21°C° 0 mm 2 m/S 755 mmHg 21%
    17:00 +20°C° 0 mm 2 m/S 755 mmHg 22%
    18:00 +19°C° 0 mm 2 m/S 755 mmHg 24%
    19:00 +17°C° 0 mm 2 m/S 755 mmHg 27%
    20:00 +16°C° 0 mm 2 m/S 755 mmHg 29%
    21:00 +15°C° 0 mm 1 m/S 755 mmHg 31%
    22:00 +15°C° 0 mm 1 m/S 756 mmHg 33%
    23:00 +14°C° 0 mm 1 m/S 756 mmHg 35%

    Morgen, 20 Januar, Sonntag

    Zeit Temperatur Niederschläge Wind Luftdruck Luftfeuchtigkeit
    00:00 +13°C° 0 mm 1 m/S 756 mmHg 37%
    01:00 +13°C° 0 mm 1 m/S 755 mmHg 38%
    02:00 +12°C° 0 mm 1 m/S 755 mmHg 40%
    03:00 +12°C° 0 mm 1 m/S 755 mmHg 42%
    04:00 +11°C° 0 mm 1 m/S 755 mmHg 43%
    05:00 +11°C° 0 mm 1 m/S 755 mmHg 45%
    06:00 +11°C° 0 mm 0 m/S 755 mmHg 41%
    07:00 +13°C° 0 mm 0 m/S 755 mmHg 38%
    08:00 +14°C° 0 mm 0 m/S 755 mmHg 34%
    09:00 +16°C° 0 mm 0 m/S 756 mmHg 30%
    10:00 +18°C° 0 mm 0 m/S 756 mmHg 25%
    11:00 +20°C° 0 mm 0 m/S 756 mmHg 21%
    12:00 +21°C° 0 mm 0 m/S 755 mmHg 18%
    13:00 +22°C° 0 mm 0 m/S 754 mmHg 16%
    14:00 +23°C° 0 mm 0 m/S 754 mmHg 14%
    15:00 +22°C° 0 mm 0 m/S 753 mmHg 14%
    16:00 +21°C° 0 mm 0 m/S 753 mmHg 15%
    17:00 +20°C° 0 mm 0 m/S 753 mmHg 15%
    18:00 +21°C° 0 mm 1 m/S 754 mmHg 17%
    19:00 +20°C° 0 mm 1 m/S 754 mmHg 18%
    20:00 +19°C° 0 mm 1 m/S 754 mmHg 19%
    21:00 +19°C° 0 mm 1 m/S 754 mmHg 20%
    22:00 +18°C° 0 mm 1 m/S 754 mmHg 21%
    23:00 +18°C° 0 mm 1 m/S 754 mmHg 21%

    übermorgen, 21 Januar, Montag

    Zeit Temperatur Niederschläge Wind Luftdruck Luftfeuchtigkeit
    00:00 +16°C° 0 mm 1 m/S 754 mmHg 22%
    01:00 +15°C° 0 mm 1 m/S 754 mmHg 22%
    02:00 +15°C° 0 mm 1 m/S 754 mmHg 23%
    03:00 +14°C° 0 mm 1 m/S 754 mmHg 24%
    04:00 +14°C° 0 mm 1 m/S 754 mmHg 25%
    05:00 +12°C° 0 mm 0 m/S 754 mmHg 26%
    06:00 +13°C° 0 mm 0 m/S 754 mmHg 23%
    07:00 +15°C° 0 mm 0 m/S 754 mmHg 21%
    08:00 +16°C° 0 mm 0 m/S 755 mmHg 19%
    09:00 +20°C° 0 mm 1 m/S 755 mmHg 16%
    10:00 +23°C° 0 mm 1 m/S 755 mmHg 14%
    11:00 +25°C° 0 mm 1 m/S 755 mmHg 11%
    12:00 +26°C° 0 mm 1 m/S 754 mmHg 10%
    13:00 +27°C° 0 mm 1 m/S 753 mmHg 9%
    14:00 +28°C° 0 mm 1 m/S 753 mmHg 8%
    15:00 +27°C° 0 mm 1 m/S 753 mmHg 9%
    16:00 +26°C° 0 mm 1 m/S 753 mmHg 10%
    17:00 +25°C° 0 mm 1 m/S 753 mmHg 10%
    18:00 +23°C° 0 mm 1 m/S 753 mmHg 12%
    19:00 +22°C° 0 mm 1 m/S 753 mmHg 13%
    20:00 +20°C° 0 mm 1 m/S 754 mmHg 15%
    21:00 +20°C° 0 mm 1 m/S 754 mmHg 15%
    22:00 +19°C° 0 mm 1 m/S 754 mmHg 15%
    23:00 +19°C° 0 mm 1 m/S 754 mmHg 16%

    22 Januar, Dienstag

    Zeit Temperatur Niederschläge Wind Luftdruck Luftfeuchtigkeit
    00:00 +18°C° 0 mm 1 m/S 754 mmHg 16%
    01:00 +18°C° 0 mm 1 m/S 754 mmHg 16%
    02:00 +18°C° 0 mm 1 m/S 753 mmHg 16%
    03:00 +16°C° 0 mm 1 m/S 753 mmHg 17%
    04:00 +15°C° 0 mm 1 m/S 753 mmHg 18%
    05:00 +15°C° 0 mm 1 m/S 753 mmHg 19%
    06:00 +15°C° 0 mm 0 m/S 753 mmHg 17%
    07:00 +16°C° 0 mm 0 m/S 754 mmHg 16%
    08:00 +18°C° 0 mm 0 m/S 754 mmHg 15%
    09:00 +20°C° 0 mm 0 m/S 754 mmHg 13%
    10:00 +22°C° 0 mm 0 m/S 754 mmHg 11%
    11:00 +24°C° 0 mm 0 m/S 754 mmHg 10%
    12:00 +27°C° 0 mm 1 m/S 753 mmHg 9%
    13:00 +28°C° 0 mm 1 m/S 753 mmHg 8%
    14:00 +29°C° 0 mm 2 m/S 752 mmHg 7%
    15:00 +28°C° 0 mm 2 m/S 752 mmHg 7%
    16:00 +27°C° 0 mm 2 m/S 752 mmHg 8%
    17:00 +26°C° 0 mm 2 m/S 752 mmHg 8%
    18:00 +24°C° 0 mm 2 m/S 752 mmHg 9%
    19:00 +23°C° 0 mm 2 m/S 753 mmHg 11%
    20:00 +20°C° 0 mm 2 m/S 753 mmHg 12%
    21:00 +20°C° 0 mm 1 m/S 753 mmHg 12%
    22:00 +20°C° 0 mm 1 m/S 753 mmHg 13%
    23:00 +19°C° 0 mm 1 m/S 753 mmHg 14%

    23 Januar, Mittwoch

    Zeit Temperatur Niederschläge Wind Luftdruck Luftfeuchtigkeit
    00:00 +18°C° 0 mm 1 m/S 753 mmHg 14%
    01:00 +16°C° 0 mm 1 m/S 752 mmHg 15%
    02:00 +16°C° 0 mm 1 m/S 752 mmHg 15%
    03:00 +15°C° 0 mm 1 m/S 752 mmHg 16%
    04:00 +15°C° 0 mm 1 m/S 752 mmHg 17%
    05:00 +13°C° 0 mm 0 m/S 752 mmHg 17%
    06:00 +15°C° 0 mm 0 m/S 752 mmHg 16%
    07:00 +18°C° 0 mm 1 m/S 752 mmHg 15%
    08:00 +20°C° 0 mm 1 m/S 752 mmHg 14%
    09:00 +22°C° 0 mm 1 m/S 752 mmHg 13%
    10:00 +24°C° 0 mm 1 m/S 752 mmHg 13%
    11:00 +27°C° 0 mm 1 m/S 752 mmHg 12%
    12:00 +28°C° 0 mm 2 m/S 751 mmHg 13%
    13:00 +29°C° 0 mm 2 m/S 750 mmHg 14%
    14:00 +30°C° 0 mm 3 m/S 750 mmHg 14%
    15:00 +29°C° 0 mm 2 m/S 750 mmHg 16%
    16:00 +28°C° 0 mm 2 m/S 749 mmHg 18%
    17:00 +27°C° 0 mm 1 m/S 749 mmHg 20%
    18:00 +26°C° 0 mm 1 m/S 750 mmHg 23%
    19:00 +24°C° 0 mm 1 m/S 750 mmHg 27%
    20:00 +22°C° 0 mm 1 m/S 751 mmHg 30%
    21:00 +22°C° 0 mm 1 m/S 750 mmHg 32%
    22:00 +22°C° 0 mm 1 m/S 750 mmHg 33%
    23:00 +21°C° 0 mm 1 m/S 750 mmHg 34%

    24 Januar, Donnerstag

    Zeit Temperatur Niederschläge Wind Luftdruck Luftfeuchtigkeit
    00:00 +21°C° 0 mm 1 m/S 750 mmHg 35%
    01:00 +20°C° 0 mm 1 m/S 750 mmHg 35%
    02:00 +20°C° 0 mm 1 m/S 750 mmHg 36%
    03:00 +20°C° 0 mm 1 m/S 750 mmHg 37%
    04:00 +19°C° 0 mm 1 m/S 750 mmHg 39%
    05:00 +19°C° 0 mm 1 m/S 750 mmHg 40%
    06:00 +20°C° 0 mm 1 m/S 750 mmHg 37%
    07:00 +21°C° 0 mm 1 m/S 750 mmHg 35%
    08:00 +21°C° 0 mm 2 m/S 750 mmHg 32%
    09:00 +25°C° 0 mm 2 m/S 750 mmHg 28%
    10:00 +27°C° 0 mm 2 m/S 751 mmHg 24%
    11:00 +30°C° 0 mm 3 m/S 751 mmHg 20%
    12:00 +31°C° 0 mm 3 m/S 750 mmHg 17%
    13:00 +33°C° 0 mm 3 m/S 750 mmHg 15%
    14:00 +34°C° 0 mm 4 m/S 749 mmHg 12%
    15:00 +33°C° 0 mm 3 m/S 749 mmHg 12%
    16:00 +31°C° 0 mm 2 m/S 749 mmHg 13%
    17:00 +30°C° 0 mm 1 m/S 749 mmHg 13%
    18:00 +28°C° 0 mm 1 m/S 750 mmHg 15%
    19:00 +26°C° 0 mm 1 m/S 750 mmHg 16%
    20:00 +23°C° 0 mm 0 m/S 750 mmHg 18%
    21:00 +22°C° 0 mm 0 m/S 750 mmHg 18%
    22:00 +21°C° 0 mm 0 m/S 751 mmHg 19%
    23:00 +20°C° 0 mm 0 m/S 751 mmHg 19%
    Mehr zeigen